Location: *
(49.0044°N, 9.5056°E)
Time: 04:17:27
(UTC+00:00)

Okean 1 Rocket - Pass Details

Date: 22 September 2019
Orbit: 608 x 634 km, 82.5° (Epoch: 15 October)

Event Time Altitude Azimuth Distance (km) Brightness Sun altitude
Rises 18:29:43 0° 198° (SSW) 2,858 6.5 -12.0°
Reaches altitude 10° 18:31:57 10° 202° (SSW) 1,960 5.7 -12.4°
Maximum altitude 18:36:14 59° 283° (WNW) 712 3.7 -13.0°
Drops below altitude 10° 18:40:34 10° 3° (N) 1,989 5.8 -13.7°
Sets 18:42:51 0° 7° (N) 2,903 6.6 -14.1°
